Regional Weather Roundup
Issued by NWS Huntsville, AL

Home | Current Version | Previous Version | Text Only | Print | Product List | Glossary On
Versions: 1 2 3 4 5 6 7 8 9 10 11 12 13 14 15 16 17 18 19 20 21 22 23 24 25 26 27 28 29 30 31 32 33 34 35 36 37 38 39 40 41 42 43 44 45 46 47 48 49 50
000
ASUS44 KHUN 240524
RWRHUN

WEATHER ROUNDUP FOR THE TENNESSEE VALLEY
NATIONAL WEATHER SERVICE HUNTSVILLE AL
1200 AM CDT THU JUL 24 2014

ALZ001>004-240600-
NORTHWEST ALABAMA

CITY           SKY/WX    TMP DP  RH WIND       PRES   REMARKS
SHOALS AIRPORT MOCLDY    72  70  94 CALM      30.02F
$$

ALZ005>007-016-240600-
NORTH CENTRAL ALABAMA

CITY           SKY/WX    TMP DP  RH WIND       PRES   REMARKS
DECATUR AP     CLEAR     72  71  97 CALM      30.02F
HUNTSVILLE AP  PTCLDY    73  70  88 CALM      30.01F
HUN NWS/UAH      N/A     74  70  88 W2          N/A
MERIDIANVILLE  PTCLDY    70  66  88 CALM      30.01F
VINEMONT AP    FAIR      69  68  99 CALM      30.05F
$$

ALZ008>010-240600-
NORTHEAST ALABAMA

CITY           SKY/WX    TMP DP  RH WIND       PRES   REMARKS
ALBERTVILLE    PTCLDY    72  72 100 CALM      30.01F
CROSSVILLE       N/A     70 N/A N/A CALM        N/A
FORT PAYNE     PTCLDY    70  66  88 CALM      30.01F
SCOTTSBORO AP  MOCLDY    73  73 100 CALM      30.01S
SCOTTSBORO HCN   N/A     73 N/A N/A MISG        N/A
VALLEY HEAD      N/A     70 N/A N/A MISG        N/A
$$

TNZ076-096-097-240600-
SOUTHEASTERN MIDDLE TENNESSEE

CITY           SKY/WX    TMP DP  RH WIND       PRES   REMARKS
FAYETTEVILLE   PTCLDY    72  72 100 SW5       30.02F
TULLAHOMA      CLOUDY    73  68  83 NE6       30.04F
WINCHESTER     MOCLDY    73  72  94 CALM      30.03F
$$

...SURROUNDING SITES...

CITY           SKY/WX    TMP DP  RH WIND       PRES   REMARKS
ATLANTA        PTCLDY    76  71  85 W3        30.02S
ANNISTON       CLEAR     72  70  93 CALM      30.02F
BIRMINGHAM     PTCLDY    73  70  90 CALM      30.03F
CHATTANOOGA    MOCLDY    78  72  81 CALM      30.00F
CORINTH        MOCLDY    72  68  88 NW5       30.02S FOG
DALTON         PTCLDY    72  72 100 CALM      30.00F
GADSDEN        CLEAR     72  70  94 CALM      30.00F
GOLDEN TRNGL   MOCLDY    72  68  88 CALM      30.01S
HALEYVILLE     FAIR      70  70 100 CALM      30.06S
JACKSON TN     MOCLDY    70  66  88 CALM      30.02F
LEWISBURG      MOCLDY    76  72  87 CALM      30.00F
MEMPHIS        PTCLDY    72  67  84 N3        30.02F
NASHVILLE      MOCLDY    77  69  76 CALM      30.01F
OXFORD MS      FAIR      70  68  94 CALM      30.04S
ROME           PTCLDY    72  71  97 CALM      30.00F FOG
TUPELO         CLOUDY    76  70  82 N6        30.01S
TUSCALOOSA     CLEAR     73  71  93 CALM      30.00F
$$

...GULF COAST WEATHER...

CITY           SKY/WX    TMP DP  RH WIND       PRES   REMARKS
GULFPORT       CLEAR     78  72  81 CALM      30.00F
PASCAGOULA     CLEAR     72  71  97 CALM      30.01F FOG
MOBILE         CLEAR     73  72  96 CALM      30.02F
GULF SHORES    PTCLDY    73  72  98 CALM      30.00F
PENSACOLA      CLEAR     74  73  97 CALM      30.00F
DESTIN         PTCLDY    82  73  74 SW3       30.02F
PANAMA CITY    PTCLDY    81  76  84 SW7       30.03F
APPALACHICOLA  CLEAR     78  73  84 CALM      30.03S
$$




USA.gov is the U.S. government's official web portal to all federal, state and local government web resources and services.